Lakeland, FL

5:41 PM EST on December 03, 2016 (GMT -0500)
Lakeland Linder Regional

Weather History for KLAL - May, 2013

Change the Weather History Date:

Sunday, May 19, 2013

  Actual Average Record
Temperature  
Mean Temperature 80 °F -  
Max Temperature 91 °F 86 °F 95 °F (1995)
Min Temperature 68 °F 65 °F 59 °F (2011)
Cooling Degree Days 14    
Growing Degree Days 30 (Base 50)    
Moisture  
Dew Point 66 °F    
Average Humidity 76    
Maximum Humidity 94    
Minimum Humidity 31    
Precipitation  
Precipitation 0.00 in - - ()
Sea Level Pressure  
Sea Level Pressure 30.06 in    
Wind  
Wind Speed 6 mph (SSE)    
Max Wind Speed 13 mph    
Max Gust Speed -    
Visibility 10 miles    
Events Rain , Thunderstorm    
Averages and records for this station are not official NWS values.
T = Trace of Precipitation, MM = Missing Value Source: NWS Daily Summary

Daily Weather History Graph

Daily Weather History Graph

Search for Another Location

Airport or City:

Trip Planner

Search our weather history database for the weather conditions in past years. The results will help you decide how hot, cold, wet, or windy it might be!

Date:

Astronomy

May. 19, 2013 Rise Set
Actual Time 6:36 AM EDT 8:13 PM EDT
Civil Twilight 6:10 AM EDT 8:39 PM EDT
Nautical Twilight 5:39 AM EDT 9:09 PM EDT
Astronomical Twilight 5:07 AM EDT 9:42 PM EDT
Moon 2:44 PM EDT (5/19) 2:28 AM EDT (5/19)
Length of Visible Light 14h 28m
Length of Day
13h 37m
Waxing Gibbous, 65% of the Moon is Illuminated
May 19
Waxing Gibbous
May 25
Full
May 31
Last Quarter
Jun 8
New
Jun 16
First Quarter

Hourly Weather History & Observations

Time (EDT) Temp. Heat Index Dew Point Humidity Pressure Visibility Wind Dir Wind Speed Gust Speed Precip Events Conditions
12:15 AM 73.4 °F - 68.0 °F 83% 30.07 in 10.0 mi SSE 12.7 mph - N/A Thunderstorm Clear
12:35 AM 73.4 °F - 68.0 °F 83% 30.08 in 10.0 mi SSE 6.9 mph - N/A   Clear
12:55 AM 73.4 °F - 68.0 °F 83% 30.08 in 10.0 mi SSE 5.8 mph - N/A   Clear
1:15 AM 73.4 °F - 66.2 °F 78% 30.08 in 10.0 mi SSE 3.5 mph - N/A   Clear
1:35 AM 73.4 °F - 66.2 °F 78% 30.07 in 10.0 mi SSE 3.5 mph - N/A   Clear
1:55 AM 71.6 °F - 66.2 °F 83% 30.06 in 10.0 mi ESE 5.8 mph - N/A   Clear
2:15 AM 73.4 °F - 68.0 °F 83% 30.06 in 10.0 mi SE 4.6 mph - N/A   Clear
2:35 AM 73.4 °F - 68.0 °F 83% 30.05 in 10.0 mi SE 6.9 mph - N/A   Clear
2:55 AM 73.4 °F - 68.0 °F 83% 30.05 in 10.0 mi ESE 5.8 mph - N/A   Clear
3:15 AM 71.6 °F - 68.0 °F 88% 30.05 in 10.0 mi SSE 4.6 mph - N/A   Clear
3:35 AM 71.6 °F - 68.0 °F 88% 30.05 in 10.0 mi SSE 5.8 mph - N/A   Clear
3:55 AM 71.6 °F - 68.0 °F 88% 30.04 in 10.0 mi SSE 4.6 mph - N/A   Clear
4:15 AM 71.6 °F - 66.2 °F 83% 30.04 in 10.0 mi SE 6.9 mph - N/A   Clear
4:35 AM 71.6 °F - 66.2 °F 83% 30.04 in 10.0 mi SE 6.9 mph - N/A   Clear
4:55 AM 69.8 °F - 66.2 °F 88% 30.04 in 10.0 mi SE 4.6 mph - N/A   Clear
5:15 AM 69.8 °F - 66.2 °F 88% 30.04 in 10.0 mi SE 4.6 mph - N/A   Clear
5:35 AM 69.8 °F - 66.2 °F 88% 30.04 in 10.0 mi ESE 4.6 mph - N/A   Clear
5:52 AM 69.8 °F - 66.2 °F 88% 30.05 in 7.0 mi ESE 3.5 mph - N/A   Clear
5:55 AM 69.8 °F - 64.4 °F 83% 30.05 in 10.0 mi SE 3.5 mph - N/A   Clear
6:15 AM 69.8 °F - 66.2 °F 88% 30.05 in 10.0 mi South 3.5 mph - N/A   Clear
6:35 AM 68.0 °F - 66.2 °F 94% 30.06 in 10.0 mi Calm Calm - N/A   Clear
6:50 AM 69.8 °F - 66.2 °F 88% 30.07 in 8.0 mi ESE 3.5 mph - N/A   Clear
8:50 AM 73.4 °F - 69.8 °F 88% 30.10 in 7.0 mi Calm Calm - N/A   Clear
9:50 AM 78.8 °F - 68.0 °F 69% 30.11 in 7.0 mi WSW 4.6 mph - N/A   Clear
10:50 AM 82.4 °F 83.4 °F 62.6 °F 51% 30.11 in 10.0 mi WSW 5.8 mph - N/A   Clear
11:50 AM 86.0 °F 86.1 °F 60.8 °F 43% 30.10 in 12.0 mi WNW 4.6 mph - N/A   Clear
12:50 PM 87.8 °F 87.1 °F 59.0 °F 38% 30.08 in 12.0 mi WSW 5.8 mph - N/A   Partly Cloudy
1:55 PM 89.6 °F 88.1 °F 57.2 °F 33% 30.05 in 15.0 mi West 8.1 mph - N/A   Partly Cloudy
3:50 PM 91.4 °F 89.9 °F 57.2 °F 31% 30.01 in 15.0 mi WSW 4.6 mph - N/A   Mostly Cloudy
4:50 PM 91.4 °F 90.7 °F 59.0 °F 34% 29.99 in 15.0 mi WSW 8.1 mph - N/A   Mostly Cloudy
5:50 PM 89.6 °F 88.9 °F 59.0 °F 36% 30.00 in 15.0 mi West 4.6 mph - N/A   Mostly Cloudy
6:50 PM 82.4 °F 85.4 °F 68.0 °F 62% 30.02 in 10.0 mi ESE 9.2 mph - N/A   Mostly Cloudy
7:50 PM 82.4 °F 85.4 °F 68.0 °F 62% 30.03 in 10.0 mi East 9.2 mph - N/A   Mostly Cloudy
8:50 PM 73.4 °F - 71.6 °F 94% 30.05 in 3.0 mi ENE 11.5 mph - N/A Rain Rain Showers
9:50 PM 73.4 °F - 71.6 °F 94% 30.08 in 5.0 mi ESE 11.5 mph - N/A   Overcast
10:55 PM 73.4 °F - 69.8 °F 88% 30.10 in 10.0 mi East 4.6 mph - N/A   Overcast
11:15 PM 73.4 °F - 69.8 °F 88% 30.10 in 10.0 mi ESE 4.6 mph - N/A   Overcast
11:35 PM 73.4 °F - 69.8 °F 88% 30.11 in 10.0 mi ESE 5.8 mph - N/A   Overcast
11:55 PM 73.4 °F - 69.8 °F 88% 30.11 in 10.0 mi SE 6.9 mph - N/A   Scattered Clouds